SAS585 ESGG-ENBR

Flight info

Callsign SAS585
Flight time 0h 55m
Altitude 38000
Route DETNA DCT ARTOR DCT TITUX DCT PESUR
Aircraft A320/M-SDE3FGHIRWY/LB1

Departure

Time 2026-05-05 17:47
Airport Göteborg Landvetter Airport (ESGG)

Arrival

Time 2026-05-05 18:42
Airport Bergen Airport, Flesland (ENBR)
Time Latitude Longitude Altitude Speed Heading
2026-05-05 17:19 57.66848 12.29375 516 ft 0 kts 116°
2026-05-05 17:36 57.66852 12.29360 516 ft 4 kts 116°
2026-05-05 17:36 57.66861 12.29325 516 ft 4 kts 126°
2026-05-05 17:37 57.66876 12.29300 516 ft 3 kts 115°
2026-05-05 17:37 57.66880 12.29266 516 ft 4 kts 42°
2026-05-05 17:37 57.66859 12.29242 516 ft 4 kts 26°
2026-05-05 17:37 57.66853 12.29237 516 ft 0 kts 26°
2026-05-05 17:41 57.66856 12.29240 516 ft 2 kts 26°
2026-05-05 17:41 57.66876 12.29259 516 ft 5 kts 26°
2026-05-05 17:41 57.66914 12.29293 516 ft 8 kts 26°
2026-05-05 17:41 57.66969 12.29329 516 ft 9 kts 350°
2026-05-05 17:42 57.67001 12.29237 516 ft 8 kts 295°
2026-05-05 17:42 57.67048 12.29192 516 ft 10 kts
2026-05-05 17:42 57.67118 12.29254 516 ft 13 kts 25°
2026-05-05 17:42 57.67207 12.29335 516 ft 16 kts 26°
2026-05-05 17:43 57.67312 12.29431 516 ft 17 kts 26°
2026-05-05 17:43 57.67403 12.29475 516 ft 14 kts 340°
2026-05-05 17:43 57.67452 12.29327 516 ft 12 kts 295°
2026-05-05 17:43 57.67460 12.29268 515 ft 0 kts 276°
2026-05-05 17:44 57.67461 12.29253 515 ft 3 kts 275°
2026-05-05 17:44 57.67459 12.29159 514 ft 10 kts 264°
2026-05-05 17:45 57.67424 12.29033 517 ft 12 kts 226°
2026-05-05 17:45 57.67388 12.28986 515 ft 0 kts 206°
2026-05-05 17:46 57.67386 12.28984 515 ft 0 kts 206°
2026-05-05 17:46 57.67187 12.28802 514 ft 70 kts 206°
2026-05-05 17:47 57.66547 12.28213 513 ft 131 kts 206°
2026-05-05 17:47 57.65578 12.27322 546 ft 174 kts 208°
2026-05-05 17:47 57.64475 12.26281 1167 ft 180 kts 208°
2026-05-05 17:47 57.63351 12.25230 1952 ft 181 kts 208°
2026-05-05 17:48 57.62173 12.24118 2283 ft 206 kts 208°
2026-05-05 17:48 57.60803 12.22847 2666 ft 233 kts 208°
2026-05-05 17:48 57.59266 12.21481 3239 ft 254 kts 208°
2026-05-05 17:48 57.57711 12.19860 4167 ft 258 kts 223°
2026-05-05 17:49 57.56684 12.17190 5183 ft 256 kts 251°
2026-05-05 17:49 57.56285 12.13971 6254 ft 254 kts 260°
2026-05-05 17:49 57.55953 12.10731 7273 ft 255 kts 260°
2026-05-05 17:49 57.55620 12.07476 8240 ft 257 kts 260°
2026-05-05 17:50 57.55278 12.04188 9211 ft 259 kts 260°
2026-05-05 17:50 57.54934 12.00882 10139 ft 262 kts 260°
2026-05-05 17:50 57.54574 11.97421 10517 ft 284 kts 260°
2026-05-05 17:50 57.54190 11.93718 11042 ft 295 kts 261°
2026-05-05 17:51 57.54056 11.89892 11831 ft 298 kts 272°
2026-05-05 17:51 57.54270 11.86039 12698 ft 299 kts 275°
2026-05-05 17:51 57.54503 11.82192 13571 ft 300 kts 275°
2026-05-05 17:51 57.54736 11.78323 14351 ft 301 kts 275°
2026-05-05 17:52 57.54964 11.74444 15070 ft 303 kts 274°
2026-05-05 17:52 57.55193 11.70526 15759 ft 305 kts 274°
2026-05-05 17:52 57.55423 11.66574 16439 ft 308 kts 274°
2026-05-05 17:52 57.55662 11.62592 17121 ft 311 kts 276°
2026-05-05 17:53 57.56328 11.58721 17792 ft 321 kts 294°
2026-05-05 17:53 57.57756 11.55407 18436 ft 334 kts 309°
2026-05-05 17:53 57.59424 11.52371 19050 ft 337 kts 309°
2026-05-05 17:53 57.61120 11.49322 19677 ft 340 kts 309°
2026-05-05 17:54 57.62830 11.46255 20302 ft 343 kts 309°
2026-05-05 17:54 57.64555 11.43161 20912 ft 345 kts 309°
2026-05-05 17:54 57.66294 11.40038 21510 ft 348 kts 309°
2026-05-05 17:54 57.68025 11.36912 22096 ft 351 kts 309°
2026-05-05 17:55 57.69786 11.33721 22735 ft 354 kts 308°
2026-05-05 17:55 57.71553 11.30505 23363 ft 355 kts 308°
2026-05-05 17:55 57.73330 11.27265 23897 ft 358 kts 308°
2026-05-05 17:55 57.75118 11.23999 24371 ft 360 kts 308°
2026-05-05 17:56 57.76916 11.20710 24848 ft 363 kts 308°
2026-05-05 17:56 57.78726 11.17396 25321 ft 365 kts 308°
2026-05-05 17:56 57.80548 11.14056 25774 ft 367 kts 308°
2026-05-05 17:56 57.82379 11.10692 26225 ft 370 kts 308°
2026-05-05 17:57 57.84222 11.07307 26667 ft 372 kts 308°
2026-05-05 17:57 57.86076 11.03896 27098 ft 374 kts 308°
2026-05-05 17:57 57.87942 11.00457 27535 ft 377 kts 308°
2026-05-05 17:57 57.89818 10.96989 27957 ft 379 kts 308°
2026-05-05 17:58 57.91677 10.93543 28365 ft 381 kts 308°
2026-05-05 17:58 57.93570 10.90034 28769 ft 384 kts 308°
2026-05-05 17:58 57.95479 10.86492 29169 ft 386 kts 308°
2026-05-05 17:58 57.97399 10.82928 29571 ft 389 kts 308°
2026-05-05 17:59 57.99329 10.79342 29969 ft 391 kts 308°
2026-05-05 17:59 58.01271 10.75723 30307 ft 393 kts 308°
2026-05-05 17:59 58.03224 10.72075 30710 ft 396 kts 308°
2026-05-05 17:59 58.05183 10.68414 31064 ft 397 kts 308°
2026-05-05 18:00 58.07149 10.64738 31404 ft 399 kts 308°
2026-05-05 18:00 58.09129 10.61030 31726 ft 401 kts 308°
2026-05-05 18:00 58.11111 10.57308 32129 ft 401 kts 308°
2026-05-05 18:00 58.13085 10.53594 32584 ft 400 kts 308°
2026-05-05 18:01 58.15018 10.49834 33039 ft 395 kts 303°
2026-05-05 18:01 58.16081 10.47079 33336 ft 390 kts 298°
2026-05-05 18:01 58.17611 10.42842 33803 ft 389 kts 298°
2026-05-05 18:01 58.19132 10.38610 34205 ft 388 kts 298°
2026-05-05 18:02 58.20649 10.34372 34536 ft 389 kts 298°
2026-05-05 18:02 58.22168 10.30112 34829 ft 390 kts 298°
2026-05-05 18:02 58.23688 10.25837 35102 ft 392 kts 298°
2026-05-05 18:02 58.25214 10.21530 35372 ft 394 kts 298°
2026-05-05 18:03 58.26742 10.17209 35639 ft 395 kts 298°
2026-05-05 18:03 58.28276 10.12862 35908 ft 396 kts 298°
2026-05-05 18:03 58.29813 10.08506 36172 ft 398 kts 298°
2026-05-05 18:03 58.31363 10.04113 36429 ft 399 kts 298°
2026-05-05 18:04 58.32915 9.99720 36681 ft 401 kts 299°
2026-05-05 18:04 58.34472 9.95314 36948 ft 402 kts 299°
2026-05-05 18:04 58.36031 9.90884 37181 ft 403 kts 299°
2026-05-05 18:04 58.37595 9.86430 37421 ft 405 kts 299°
2026-05-05 18:05 58.39163 9.81952 37663 ft 406 kts 299°
2026-05-05 18:05 58.40731 9.77463 37872 ft 408 kts 299°
2026-05-05 18:05 58.42307 9.72939 37933 ft 409 kts 299°
2026-05-05 18:06 58.45430 9.63924 37929 ft 409 kts 298°
2026-05-05 18:06 58.48568 9.54872 37928 ft 409 kts 298°
2026-05-05 18:07 58.51704 9.45801 37925 ft 409 kts 298°
2026-05-05 18:07 58.54824 9.36704 37926 ft 408 kts 298°
2026-05-05 18:08 58.57935 9.27592 37923 ft 408 kts 298°
2026-05-05 18:08 58.61025 9.18523 37937 ft 409 kts 298°
2026-05-05 18:09 58.64134 9.09386 37943 ft 409 kts 298°
2026-05-05 18:09 58.67233 9.00218 37947 ft 409 kts 298°
2026-05-05 18:10 58.70325 8.91027 37946 ft 409 kts 298°
2026-05-05 18:10 58.73417 8.81805 37988 ft 409 kts 298°
2026-05-05 18:11 58.76462 8.72699 37950 ft 406 kts 298°
2026-05-05 18:11 58.79518 8.63524 37952 ft 406 kts 298°
2026-05-05 18:12 58.82558 8.54346 37958 ft 406 kts 298°
2026-05-05 18:12 58.85598 8.45139 37959 ft 406 kts 298°
2026-05-05 18:13 58.88629 8.35920 37975 ft 406 kts 298°
2026-05-05 18:13 58.91624 8.26731 37792 ft 405 kts 294°
2026-05-05 18:13 58.92669 8.21756 37544 ft 397 kts 285°
2026-05-05 18:14 58.93496 8.16591 37309 ft 395 kts 284°
2026-05-05 18:14 58.94279 8.11581 37085 ft 394 kts 284°
2026-05-05 18:14 58.95072 8.06493 36852 ft 394 kts 284°
2026-05-05 18:14 58.95954 8.01479 36616 ft 395 kts 290°
2026-05-05 18:15 58.97061 7.96615 36373 ft 394 kts 290°
2026-05-05 18:15 58.98182 7.91780 35874 ft 392 kts 290°
2026-05-05 18:15 58.99308 7.86969 35384 ft 390 kts 290°
2026-05-05 18:15 59.00423 7.82219 35005 ft 384 kts 290°
2026-05-05 18:16 59.01517 7.77544 34647 ft 378 kts 290°
2026-05-05 18:16 59.02592 7.72925 34287 ft 373 kts 290°
2026-05-05 18:16 59.03645 7.68370 33924 ft 367 kts 289°
2026-05-05 18:16 59.04679 7.63867 33498 ft 363 kts 289°
2026-05-05 18:17 59.05698 7.59401 33009 ft 359 kts 289°
2026-05-05 18:17 59.06703 7.54988 32537 ft 355 kts 289°
2026-05-05 18:17 59.07696 7.50621 32044 ft 351 kts 289°
2026-05-05 18:17 59.08680 7.46298 31578 ft 348 kts 289°
2026-05-05 18:18 59.09654 7.42016 31141 ft 345 kts 289°
2026-05-05 18:18 59.10621 7.37770 30697 ft 342 kts 289°
2026-05-05 18:18 59.11576 7.33567 30357 ft 338 kts 289°
2026-05-05 18:18 59.12507 7.29464 29985 ft 333 kts 288°
2026-05-05 18:19 59.13433 7.25369 29542 ft 329 kts 288°
2026-05-05 18:19 59.14349 7.21310 29085 ft 326 kts 288°
2026-05-05 18:19 59.15257 7.17277 28642 ft 323 kts 288°
2026-05-05 18:19 59.16153 7.13276 28205 ft 321 kts 288°
2026-05-05 18:20 59.17039 7.09296 27778 ft 319 kts 288°
2026-05-05 18:20 59.17966 7.05376 27374 ft 320 kts 295°
2026-05-05 18:20 59.19310 7.01861 26958 ft 324 kts 302°
2026-05-05 18:20 59.20725 6.98444 26541 ft 323 kts 302°
2026-05-05 18:21 59.22139 6.95049 26121 ft 321 kts 302°
2026-05-05 18:21 59.23542 6.91684 25690 ft 319 kts 302°
2026-05-05 18:21 59.24939 6.88329 25284 ft 317 kts 302°
2026-05-05 18:21 59.26322 6.84998 24881 ft 315 kts 302°
2026-05-05 18:22 59.27694 6.81681 24490 ft 313 kts 302°
2026-05-05 18:22 59.29055 6.78381 24097 ft 311 kts 302°
2026-05-05 18:22 59.30404 6.75100 23697 ft 308 kts 302°
2026-05-05 18:22 59.31744 6.71834 23232 ft 306 kts 302°
2026-05-05 18:23 59.33074 6.68589 22786 ft 304 kts 302°
2026-05-05 18:23 59.34394 6.65363 22341 ft 302 kts 302°
2026-05-05 18:23 59.35699 6.62169 21902 ft 300 kts 302°
2026-05-05 18:23 59.37001 6.58985 21477 ft 297 kts 302°
2026-05-05 18:24 59.38271 6.55875 21066 ft 295 kts 302°
2026-05-05 18:24 59.39565 6.52703 20666 ft 293 kts 302°
2026-05-05 18:24 59.40830 6.49597 20267 ft 290 kts 302°
2026-05-05 18:24 59.42069 6.46549 19884 ft 289 kts 302°
2026-05-05 18:25 59.43316 6.43475 19501 ft 286 kts 302°
2026-05-05 18:25 59.44151 6.41414 19237 ft 285 kts 302°
2026-05-05 18:25 59.45790 6.37367 18814 ft 281 kts 303°
2026-05-05 18:25 59.46982 6.34415 18455 ft 278 kts 303°
2026-05-05 18:26 59.48202 6.31474 18056 ft 279 kts 309°
2026-05-05 18:26 59.49682 6.28973 17612 ft 281 kts 314°
2026-05-05 18:26 59.51194 6.26536 17154 ft 281 kts 315°
2026-05-05 18:26 59.52705 6.24096 16681 ft 281 kts 315°
2026-05-05 18:27 59.54214 6.21656 16224 ft 281 kts 315°
2026-05-05 18:27 59.55723 6.19214 15758 ft 280 kts 316°
2026-05-05 18:27 59.57229 6.16770 15285 ft 281 kts 316°
2026-05-05 18:27 59.58738 6.14323 14872 ft 281 kts 317°
2026-05-05 18:28 59.61749 6.09448 14130 ft 278 kts 318°
2026-05-05 18:28 59.63241 6.07025 13779 ft 277 kts 318°
2026-05-05 18:28 59.64725 6.04607 13402 ft 276 kts 318°
2026-05-05 18:29 59.66198 6.02197 13050 ft 273 kts 318°
2026-05-05 18:29 59.67656 5.99812 12714 ft 271 kts 318°
2026-05-05 18:29 59.69101 5.97449 12357 ft 267 kts 318°
2026-05-05 18:29 59.70511 5.95149 12043 ft 264 kts 319°
2026-05-05 18:30 59.71922 5.92840 11706 ft 263 kts 319°
2026-05-05 18:30 59.73326 5.90535 11378 ft 261 kts 319°
2026-05-05 18:30 59.74723 5.88236 11046 ft 260 kts 319°
2026-05-05 18:30 59.76109 5.85952 10725 ft 259 kts 319°
2026-05-05 18:31 59.77494 5.83674 10396 ft 258 kts 319°
2026-05-05 18:31 59.78874 5.81403 10059 ft 257 kts 319°
2026-05-05 18:31 59.80247 5.79143 9710 ft 256 kts 319°
2026-05-05 18:31 59.81617 5.76880 9376 ft 255 kts 319°
2026-05-05 18:32 59.82974 5.74637 9041 ft 253 kts 319°
2026-05-05 18:32 59.84321 5.72410 8723 ft 251 kts 319°
2026-05-05 18:32 59.85660 5.70191 8403 ft 250 kts 319°
2026-05-05 18:32 59.86988 5.67981 8085 ft 249 kts 319°
2026-05-05 18:33 59.88313 5.65782 7765 ft 247 kts 320°
2026-05-05 18:33 59.89634 5.63593 7442 ft 247 kts 320°
2026-05-05 18:33 59.90953 5.61407 7145 ft 246 kts 320°
2026-05-05 18:33 59.92268 5.59220 6826 ft 246 kts 320°
2026-05-05 18:34 59.93576 5.57037 6508 ft 245 kts 320°
2026-05-05 18:34 59.94884 5.54847 6179 ft 246 kts 320°
2026-05-05 18:34 59.96177 5.52681 5850 ft 245 kts 320°
2026-05-05 18:34 59.97482 5.50495 5530 ft 245 kts 320°
2026-05-05 18:35 59.98788 5.48311 5196 ft 245 kts 320°
2026-05-05 18:35 60.00094 5.46126 4883 ft 245 kts 320°
2026-05-05 18:35 60.01394 5.43945 4558 ft 244 kts 320°
2026-05-05 18:35 60.02692 5.41769 4269 ft 242 kts 320°
2026-05-05 18:36 60.03955 5.39648 4158 ft 232 kts 320°
2026-05-05 18:36 60.05154 5.37630 4095 ft 219 kts 320°
2026-05-05 18:36 60.06292 5.35708 4031 ft 208 kts 319°
2026-05-05 18:36 60.07371 5.33884 3939 ft 198 kts 319°
2026-05-05 18:37 60.08397 5.32150 3880 ft 185 kts 319°
2026-05-05 18:37 60.09334 5.30566 3775 ft 171 kts 320°
2026-05-05 18:37 60.10195 5.29111 3704 ft 153 kts 320°
2026-05-05 18:37 60.11029 5.27752 3638 ft 154 kts 327°
2026-05-05 18:38 60.12051 5.27422 3460 ft 154 kts
2026-05-05 18:38 60.13133 5.27383 3302 ft 155 kts 343°
2026-05-05 18:38 60.14185 5.26894 3098 ft 156 kts 348°
2026-05-05 18:38 60.15249 5.26529 2884 ft 154 kts 348°
2026-05-05 18:39 60.16305 5.26173 2669 ft 154 kts 348°
2026-05-05 18:39 60.17365 5.25818 2453 ft 155 kts 348°
2026-05-05 18:39 60.18424 5.25465 2235 ft 154 kts 348°
2026-05-05 18:39 60.19481 5.25112 2015 ft 154 kts 349°
2026-05-05 18:40 60.20497 5.24774 1809 ft 140 kts 349°
2026-05-05 18:40 60.21421 5.24466 1611 ft 131 kts 349°
2026-05-05 18:40 60.22300 5.24173 1414 ft 126 kts 348°
2026-05-05 18:40 60.23165 5.23886 1247 ft 126 kts 348°
2026-05-05 18:41 60.24025 5.23608 1055 ft 125 kts 348°
2026-05-05 18:41 60.24893 5.23311 868 ft 127 kts 348°
2026-05-05 18:41 60.25766 5.23014 702 ft 127 kts 346°
2026-05-05 18:41 60.26641 5.22723 521 ft 128 kts 348°
2026-05-05 18:42 60.27502 5.22445 353 ft 126 kts 346°
2026-05-05 18:42 60.28366 5.22165 206 ft 126 kts 347°
2026-05-05 18:42 60.29146 5.21869 162 ft 86 kts 349°
2026-05-05 18:42 60.29523 5.21741 149 ft 34 kts 352°
2026-05-05 18:43 60.29675 5.21713 150 ft 12 kts 14°
2026-05-05 18:43 60.29715 5.21874 148 ft 11 kts 80°
2026-05-05 18:43 60.29717 5.21901 148 ft 0 kts 81°
2026-05-05 18:45 60.29718 5.21905 148 ft 2 kts 81°
2026-05-05 18:45 60.29720 5.21953 148 ft 5 kts 92°
2026-05-05 18:45 60.29689 5.22014 148 ft 8 kts 160°
2026-05-05 18:45 60.29622 5.22044 149 ft 11 kts 169°
2026-05-05 18:46 60.29548 5.22068 152 ft 10 kts 171°
2026-05-05 18:46 60.29481 5.22091 156 ft 10 kts 170°
2026-05-05 18:46 60.29410 5.22116 158 ft 11 kts 170°
2026-05-05 18:46 60.29331 5.22142 161 ft 12 kts 170°
2026-05-05 18:47 60.29247 5.22169 163 ft 13 kts 170°
2026-05-05 18:47 60.29153 5.22202 163 ft 12 kts 169°
2026-05-05 18:47 60.29084 5.22259 164 ft 8 kts 127°
2026-05-05 18:47 60.29061 5.22344 166 ft 7 kts 137°
2026-05-05 18:48 60.29032 5.22424 169 ft 7 kts 101°
2026-05-05 18:48 60.29035 5.22504 171 ft 5 kts 82°
2026-05-05 18:48 60.29040 5.22568 173 ft 5 kts 81°
2026-05-05 18:48 60.29047 5.22633 174 ft 5 kts 77°
2026-05-05 18:49 60.29049 5.22706 175 ft 6 kts 118°
2026-05-05 18:49 60.29020 5.22728 174 ft 4 kts 173°
2026-05-05 18:49 60.29001 5.22727 173 ft 3 kts 181°
2026-05-05 18:49 60.28992 5.22727 173 ft 1 kts 181°
2026-05-05 18:50 60.28991 5.22727 173 ft 0 kts 181°
2026-05-05 18:57 60.28990 5.22727 173 ft 0 kts 181°